Content
SEND FEEDBACK

Daily
Averages
Monthly
Summary
Turkmenistan

ASHGABAT, TURKMENISTAN


Home > Asia > Turkmenistan
Elevation: 236 meters     Latitude: 37 58N     Longitude: 058 20E

WEATHER
 
SELECT A DAY
Number of Records: 181,286;   Date Range: 3/15/97 - 10/24/14
 
SHARE

PRINT THIS DATA

[ ← Previous Day ]
WEATHER ALMANAC - 1 JULY, 2013
[ Next Day → ]
[ °F ]   °C
We're sorry. There is no daily almanac available for Ashgabat, Turkmenistan on 1 July, 2013.
WEATHER BY HOUR - 1 JULY, 2013
[ °F ]   °C
Local TimeTemperatureDewpointHumidityBarometerVisibilityWind DirectionWind SpeedGust SpeedPrecipitationEventsConditions
1:00 AM28 °C8 °C28 %1005.1 hPa10 kmSW (230°)7.2 km/hClear
2:00 AM26.7 °C11.1 °C27 %1004.7 hPa9.7 kmSW (220°)7.2 km/hScattered Clouds
2:00 AM27 °C8 °C30 %1005.1 hPa10 kmSW (220°)7.2 km/hPartly Cloudy
3:00 AM27 °C8 °C30 %1004.1 hPa10 kmSW (220°)10.8 km/hPartly Cloudy
4:00 AM26 °C9 °C34 %1004.1 hPa10 kmSW (220°)10.8 km/hScattered Clouds
5:00 AM24.4 °C11.7 °C34 %1004.7 hPa9.7 kmWSW (250°)10.8 km/hScattered Clouds
5:00 AM25 °C8 °C34 %1004.1 hPa10 kmWSW (250°)10.8 km/hPartly Cloudy
6:00 AM26 °C7 °C30 %1005.1 hPa10 kmWNW (290°)18 km/hPartly Cloudy
7:00 AM28 °C7 °C26 %1005.1 hPa10 kmWNW (290°)25.3 km/hClear
8:00 AM28.9 °C10.6 °C21 %1005.1 hPa9.7 kmWNW (300°)25.3 km/h
8:00 AM29 °C8 °C27 %1005.1 hPa10 kmWNW (290°)25.3 km/hClear
9:00 AM31 °C8 °C24 %1005.1 hPa10 kmWNW (300°)25.3 km/hPartly Cloudy
9:30 AM31 °C8 °C24 %1005.1 hPa10 kmNW (310°)25.3 km/hPartly Cloudy
10:00 AM32 °C7 °C21 %1005.1 hPa10 kmNW (310°)21.6 km/hPartly Cloudy
10:30 AM33 °C7 °C20 %1005.1 hPa10 kmNW (310°)21.6 km/hPartly Cloudy
11:00 AM34 °C6 °C17 %1005.1 hPa10 kmNW (310°)18 km/hPartly Cloudy
11:00 AM33.3 °C11.1 °C17 %1004.1 hPa9.7 kmNW (310°)18 km/hScattered Clouds
12:00 PM35 °C6 °C16 %1005.1 hPa10 kmNW (320°)14.3 km/hPartly Cloudy
1:00 PM37 °C5 °C14 %1004.1 hPa10 kmNW (320°)10.8 km/hPartly Cloudy
2:00 PM36.7 °C4.4 °C7 %1002.7 hPa9.7 kmWNW (300°)10.8 km/h
2:00 PM37 °C3 °C12 %1003 hPa10 kmWNW (300°)14.3 km/hPartly Cloudy
2:30 PM38 °C4 °C12 %1003 hPa10 kmNorth (350°)10.8 km/hPartly Cloudy
3:00 PM38 °C4 °C12 %1002 hPa10 kmNW (310°)7.2 km/hPartly Cloudy
4:00 PM39 °C4 °C11 %1002 hPa10 kmWNW (300°)7.2 km/hPartly Cloudy
5:00 PM39 °C4 °C11 %1002 hPa10 kmNW (320°)10.8 km/hPartly Cloudy
5:00 PM37.8 °C6.7 °C8 %1000.7 hPa9.7 kmNNW (340°)10.8 km/hScattered Clouds
6:00 PM39 °C3 °C11 %1001 hPa10 kmWNW (290°)7.2 km/hPartly Cloudy
7:00 PM38 °C3 °C11 %1001 hPa10 kmNNW (330°)7.2 km/hPartly Cloudy
8:00 PM36.1 °C12.2 °C15 %1000 hPa9.7 kmNW (310°)7.2 km/hScattered Clouds
8:00 PM37 °C4 °C13 %1001 hPa10 kmNW (310°)7.2 km/hPartly Cloudy
9:00 PM33 °C5 °C17 %1001 hPa10 kmCalmPartly Cloudy
10:00 PM32 °C6 °C20 %1002 hPa9 kmNW (310°)7.2 km/hPartly Cloudy
Hourly data recorded from UTAA, located 0 kilometers away from Ashgabat, Turkmenistan







STORIES FROM OUR PARTNERS